Flood From: 18-02-2018 10:00 Until: 19-02-2018 06:00 warning for: Flood Level: Yellow info button

Although rather usual in this region, locally or potentially dangerous phenomena are expected. (such as local winds, summer thunderstorms, rising streams or high waves) Be aware and pay attention to the latest weather updates, especially if you carry out activities exposed to weather or close to a stream or shoreline. 


Meteo18 Weather Cam more information Meteo18 Weather Cam


Thunder radar more information blitzortung!


Rain radar more information rain snow radar


Visit our other weather sites:

Template documentation
and downloads

And another site



Weather Underground History page Text

Daily Summary for September 12, 2016 Units:  Metric    English   Both
« Previous Day
Next Day »
Daily Weekly Monthly Yearly Custom
  High: Low: Average:
Temperature: -17.8 °C -8.1 °C -4.2 °C
Dew Point: -17.8 °C -10.8 °C -10.2 °C
Humidity: Humidity % 31 % 53 %
Wind Speed: 0 km/h 0 km/h 3.5 km/h
Wind Gust: 0 km/h - -
Wind:- - SSE
Pressure: 0 hPa 34256.2 hPa -
Precipitation: 0 mm    
Historical Graphs
 
 
Tabular Data for September 12, 2016
Time Temperature Dew Point Pressure Wind Wind Speed Wind Gust Humidity Rainfall Rate (Hourly)
-17.8 °C -17.8 °C 0 hPa Calm     Humidity % 0 mm
00:02 -6.7 °C -10.6 °C 34405.1 hPa Calm     64 % 0 mm
00:07 -6.8 °C -10.7 °C 34405.1 hPa Calm     64 % 0 mm
00:12 -6.9 °C -10.5 °C 34405.1 hPa Calm     66 % 0 mm
00:17 -6.8 °C -10.4 °C 34405.1 hPa Calm     66 % 0 mm
00:32 -6.8 °C -10.4 °C 34405.1 hPa Calm     66 % 0 mm
00:37 -6.8 °C -10.4 °C 34405.1 hPa Calm     66 % 0 mm
00:42 -6.8 °C -10.4 °C 34395 hPa Calm     66 % 0 mm
00:47 -6.8 °C -10.4 °C 34395 hPa Calm     66 % 0 mm
00:52 -6.8 °C -10.4 °C 34395 hPa Calm     66 % 0 mm
00:57 -6.8 °C -10.4 °C 34395 hPa Calm     66 % 0 mm
01:02 -6.8 °C -10.6 °C 34395 hPa Calm     65 % 0 mm
01:07 -6.8 °C -10.6 °C 34395 hPa Calm     65 % 0 mm
01:12 -6.8 °C -10.6 °C 34395 hPa Calm     65 % 0 mm
01:17 -6.8 °C -10.7 °C 34395 hPa Calm     64 % 0 mm
01:22 -6.9 °C -10.7 °C 34395 hPa Calm     65 % 0 mm
01:27 -7 °C -10.7 °C 34395 hPa Calm     65 % 0 mm
01:37 -6.9 °C -10.7 °C 34395 hPa Calm     65 % 0 mm
01:42 -7.1 °C -10.6 °C 34395 hPa Calm     67 % 0 mm
01:52 -7 °C -10.5 °C 34384.8 hPa Calm     67 % 0 mm
01:57 -7.1 °C -10.7 °C 34384.8 hPa Calm     66 % 0 mm
02:02 -7.2 °C -10.7 °C 34395 hPa Calm     67 % 0 mm
02:07 -7.2 °C -10.7 °C 34384.8 hPa Calm     67 % 0 mm
02:12 -7.2 °C -10.5 °C 34384.8 hPa Calm     68 % 0 mm
02:17 -7.2 °C -10.4 °C 34384.8 hPa Calm     69 % 0 mm
02:22 -7.3 °C -10.5 °C 34384.8 hPa Calm     69 % 0 mm
02:27 -7.3 °C -10.5 °C 34384.8 hPa Calm     69 % 0 mm
02:32 -7.3 °C -10.5 °C 34384.8 hPa Calm     69 % 0 mm
02:37 -7.3 °C -10.5 °C 34384.8 hPa Calm     69 % 0 mm
02:42 -7.2 °C -10.5 °C 34384.8 hPa Calm     68 % 0 mm
02:47 -7.1 °C -10.5 °C 34384.8 hPa Calm     68 % 0 mm
02:52 -7.1 °C -10.6 °C 34371.3 hPa Calm     67 % 0 mm
02:57 -7.1 °C -10.6 °C 34371.3 hPa Calm     67 % 0 mm
03:02 -7.1 °C -10.6 °C 34371.3 hPa Calm     67 % 0 mm
03:07 -7.1 °C -10.5 °C 34371.3 hPa Calm     68 % 0 mm
03:12 -7.2 °C -10.5 °C 34371.3 hPa Calm     68 % 0 mm
03:17 -7.2 °C -10.7 °C 34371.3 hPa Calm     67 % 0 mm
03:32 -7.2 °C -10.5 °C 34361.1 hPa Calm     68 % 0 mm
03:37 -7.1 °C -10.4 °C 34361.1 hPa Calm     68 % 0 mm
03:42 -7.1 °C -10.5 °C 34361.1 hPa Calm     68 % 0 mm
03:47 -7.2 °C -10.5 °C 34361.1 hPa Calm     68 % 0 mm
03:52 -7.3 °C -10.7 °C 34361.1 hPa Calm     68 % 0 mm
03:57 -7.6 °C -10.7 °C 34361.1 hPa Calm     70 % 0 mm
04:02 -7.6 °C -10.7 °C 34347.6 hPa Calm     70 % 0 mm
04:07 -7.6 °C -10.6 °C 34347.6 hPa Calm     71 % 0 mm
04:12 -7.6 °C -10.6 °C 34347.6 hPa Calm     71 % 0 mm
04:17 -7.6 °C -10.6 °C 34347.6 hPa Calm     71 % 0 mm
04:22 -7.6 °C -10.7 °C 34347.6 hPa Calm     70 % 0 mm
04:27 -7.7 °C -10.7 °C 34347.6 hPa Calm     71 % 0 mm
04:32 -7.7 °C -10.6 °C 34347.6 hPa Calm     72 % 0 mm
04:37 -7.7 °C -10.6 °C 34347.6 hPa Calm     71 % 0 mm
04:42 -7.6 °C -10.6 °C 34347.6 hPa Calm     71 % 0 mm
04:47 -7.7 °C -10.6 °C 34347.6 hPa Calm     72 % 0 mm
04:52 -7.8 °C -10.6 °C 34347.6 hPa Calm     73 % 0 mm
04:57 -7.9 °C -10.6 °C 34347.6 hPa Calm     73 % 0 mm
05:02 -7.8 °C -10.6 °C 34347.6 hPa Calm     73 % 0 mm
05:12 -7.7 °C -10.6 °C 34347.6 hPa Calm     72 % 0 mm
05:17 -7.8 °C -10.6 °C 34337.4 hPa Calm   5.1 km/h 73 % 0 mm
05:22 -7.9 °C -10.5 °C 34337.4 hPa North 2.6 km/h 5.1 km/h 74 % 0 mm
05:27 -7.9 °C -10.6 °C 34337.4 hPa North 2.6 km/h 5.1 km/h 73 % 0 mm
05:32 -7.9 °C -10.6 °C 34337.4 hPa NNE 5.1 km/h 5.1 km/h 73 % 0 mm
05:37 -7.9 °C -10.6 °C 34337.4 hPa Calm   5.1 km/h 74 % 0 mm
05:42 -7.9 °C -10.5 °C 34337.4 hPa NNW 2.6 km/h 5.1 km/h 74 % 0 mm
05:47 -7.9 °C -10.5 °C 34337.4 hPa Calm   5.1 km/h 74 % 0 mm
05:52 -7.9 °C -10.6 °C 34337.4 hPa NNW 2.6 km/h 5.1 km/h 73 % 0 mm
05:57 -7.9 °C -10.6 °C 34337.4 hPa Calm   5.1 km/h 74 % 0 mm
06:02 -8 °C -10.5 °C 34337.4 hPa Calm   5.1 km/h 75 % 0 mm
06:07 -7.9 °C -10.4 °C 34337.4 hPa Calm   2.6 km/h 75 % 0 mm
06:12 -8 °C -10.5 °C 34337.4 hPa Calm   2.6 km/h 75 % 0 mm
06:17 -8 °C -10.5 °C 34337.4 hPa Calm   2.6 km/h 75 % 0 mm
06:22 -7.8 °C -10.4 °C 34337.4 hPa Calm   2.6 km/h 74 % 0 mm
06:27 -7.8 °C -10.6 °C 34337.4 hPa NW 2.6 km/h 2.6 km/h 73 % 0 mm
06:37 -7.9 °C -10.6 °C 34337.4 hPa Calm   5.1 km/h 74 % 0 mm
06:42 -7.9 °C -10.5 °C 34327.3 hPa Calm   5.1 km/h 74 % 0 mm
06:47 -7.9 °C -10.6 °C 34327.3 hPa Calm   5.1 km/h 73 % 0 mm
06:52 -7.9 °C -10.7 °C 34327.3 hPa WNW 2.6 km/h 5.1 km/h 73 % 0 mm
06:57 -7.9 °C -10.6 °C 34327.3 hPa Calm   2.6 km/h 74 % 0 mm
07:02 -7.8 °C -10.4 °C 34337.4 hPa Calm   2.6 km/h 74 % 0 mm
07:12 -7.8 °C -10.6 °C 34337.4 hPa Calm   2.6 km/h 73 % 0 mm
07:17 -7.7 °C -10.3 °C 34337.4 hPa Calm   2.6 km/h 74 % 0 mm
07:22 -7.6 °C -10.4 °C 34327.3 hPa Calm   2.6 km/h 72 % 0 mm
07:32 -7.9 °C -10.5 °C 34337.4 hPa Calm   2.6 km/h 74 % 0 mm
07:37 -7.9 °C -10.5 °C 34337.4 hPa Calm     74 % 0 mm
07:42 -7.9 °C -10.4 °C 34337.4 hPa Calm     75 % 0 mm
07:47 -7.9 °C -10.4 °C 34327.3 hPa Calm     75 % 0 mm
07:52 -7.8 °C -10.6 °C 34337.4 hPa Calm     73 % 0 mm
07:57 -8 °C -10.6 °C 34337.4 hPa Calm     74 % 0 mm
08:02 -8.1 °C -10.5 °C 34337.4 hPa WNW 2.6 km/h   76 % 0 mm
08:07 -8.1 °C -10.6 °C 34337.4 hPa Calm   5.1 km/h 75 % 0 mm
08:12 -8.1 °C -10.7 °C 34337.4 hPa Calm   5.1 km/h 74 % 0 mm
08:17 -8.1 °C -10.8 °C 34337.4 hPa Calm   2.6 km/h 73 % 0 mm
08:22 -8 °C -10.4 °C 34337.4 hPa Calm   2.6 km/h 76 % 0 mm
08:32 -7.7 °C -10.2 °C 34337.4 hPa Calm   2.6 km/h 75 % 0 mm
08:37 -7.6 °C -10.2 °C 34337.4 hPa Calm     74 % 0 mm
08:42 -7.3 °C -10.1 °C 34337.4 hPa Calm     73 % 0 mm
08:47 -7.2 °C -10.1 °C 34347.6 hPa Calm     72 % 0 mm
08:52 -6.9 °C -9.8 °C 34347.6 hPa Calm     72 % 0 mm
08:57 -6.6 °C -9.7 °C 34337.4 hPa Calm     70 % 0 mm
09:02 -6.4 °C -9.7 °C 34337.4 hPa Calm     69 % 0 mm
09:12 -5.9 °C -9.7 °C 34337.4 hPa SE 2.6 km/h 2.6 km/h 65 % 0 mm
09:17 -6.1 °C -9.7 °C 34347.6 hPa SSE 2.6 km/h 7.7 km/h 66 % 0 mm
09:27 -6.3 °C -9.8 °C 34347.6 hPa Calm   7.7 km/h 67 % 0 mm
09:32 -6.2 °C -9.6 °C 34347.6 hPa SE 2.6 km/h 7.7 km/h 68 % 0 mm
09:42 -5.9 °C -9.6 °C 34347.6 hPa SSW 2.6 km/h 7.7 km/h 66 % 0 mm
09:47 -5.8 °C -9.5 °C 34347.6 hPa ESE 5.1 km/h 10.3 km/h 66 % 0 mm
09:52 -5.7 °C -9.6 °C 34347.6 hPa SW 2.6 km/h 10.3 km/h 65 % 0 mm
09:57 -5.6 °C -9.6 °C 34347.6 hPa WSW 2.6 km/h 10.3 km/h 64 % 0 mm
10:02 -5.4 °C -9.4 °C 34347.6 hPa Calm   10.3 km/h 64 % 0 mm
10:12 -5.3 °C -9.4 °C 34347.6 hPa Calm   7.7 km/h 63 % 0 mm
10:17 -5.1 °C -9.4 °C 34347.6 hPa SE 5.1 km/h 10.3 km/h 62 % 0 mm
10:22 -5.1 °C -9.3 °C 34347.6 hPa East 5.1 km/h 10.3 km/h 62 % 0 mm
10:32 -4.8 °C -9.4 °C 34347.6 hPa SSW 5.1 km/h 10.3 km/h 60 % 0 mm
10:42 -4.7 °C -9.2 °C 34347.6 hPa SSE 5.1 km/h 12.9 km/h 61 % 0 mm
10:47 -4.6 °C -9.1 °C 34347.6 hPa ESE 5.1 km/h 12.9 km/h 60 % 0 mm
10:57 -4.3 °C -9.2 °C 34347.6 hPa SSW 7.7 km/h 15.6 km/h 58 % 0 mm
11:02 -4.2 °C -9.1 °C 34347.6 hPa South 7.7 km/h 18.2 km/h 58 % 0 mm
11:07 -3.9 °C -9 °C 34347.6 hPa SW 2.6 km/h 18.2 km/h 57 % 0 mm
11:12 -3.7 °C -9.1 °C 34347.6 hPa SE 2.6 km/h 18.2 km/h 55 % 0 mm
11:17 -3.7 °C -9.2 °C 34347.6 hPa SW 5.1 km/h 20.8 km/h 54 % 0 mm
11:22 -3.6 °C -9.2 °C 34347.6 hPa WSW 10.3 km/h 20.8 km/h 54 % 0 mm
11:27 -3.5 °C -9.2 °C 34347.6 hPa SW 10.3 km/h 20.8 km/h 53 % 0 mm
11:37 -3.3 °C -9.2 °C 34347.6 hPa SW 5.1 km/h 18.2 km/h 52 % 0 mm
11:42 -3.2 °C -9.1 °C 34347.6 hPa South 2.6 km/h 18.2 km/h 52 % 0 mm
11:47 -2.9 °C -9.2 °C 34347.6 hPa SE 7.7 km/h 12.9 km/h 50 % 0 mm
11:52 -2.8 °C -9.2 °C 34347.6 hPa SSW 5.1 km/h 12.9 km/h 49 % 0 mm
12:02 -2.7 °C -9.4 °C 34347.6 hPa South 15.6 km/h 23.3 km/h 48 % 0 mm
12:07 -2.7 °C -9.4 °C 34347.6 hPa SE 7.7 km/h 23.3 km/h 48 % 0 mm
12:17 -2.6 °C -9.4 °C 34347.6 hPa East 2.6 km/h 20.8 km/h 47 % 0 mm
12:22 -2.6 °C -9.6 °C 34347.6 hPa SSW 7.7 km/h 20.8 km/h 46 % 0 mm
12:32 -2.6 °C -9.4 °C 34347.6 hPa ESE 7.7 km/h 20.8 km/h 47 % 0 mm
12:37 -2.4 °C -9.3 °C 34347.6 hPa WSW 2.6 km/h 15.6 km/h 47 % 0 mm
12:42 -2.4 °C -9.2 °C 34347.6 hPa SE 5.1 km/h 15.6 km/h 47 % 0 mm
12:47 -2.2 °C -9.3 °C 34347.6 hPa SSW 5.1 km/h 15.6 km/h 46 % 0 mm
12:52 -2 °C -9.3 °C 34337.4 hPa SE 7.7 km/h 15.6 km/h 45 % 0 mm
12:57 -2.1 °C -9.5 °C 34347.6 hPa SW 7.7 km/h 18.2 km/h 44 % 0 mm
13:02 -2 °C -9.7 °C 34337.4 hPa WNW 15.6 km/h 18.2 km/h 43 % 0 mm
13:07 -1.8 °C -9.9 °C 34347.6 hPa SSW 5.1 km/h 20.8 km/h 41 % 0 mm
13:12 -1.7 °C -9.6 °C 34337.4 hPa SSE 10.3 km/h 20.8 km/h 42 % 0 mm
13:17 -1.6 °C -9.7 °C 34337.4 hPa SSW 10.3 km/h 28.5 km/h 41 % 0 mm
13:22 -1.4 °C -9.5 °C 34337.4 hPa SW 2.6 km/h 28.5 km/h 41 % 0 mm
13:27 -1.3 °C -9.6 °C 34337.4 hPa SW 20.8 km/h 28.5 km/h 40 % 0 mm
13:32 -1.3 °C -9.9 °C 34337.4 hPa WSW 23.3 km/h 23.3 km/h 39 % 0 mm
13:37 -1.3 °C -9.6 °C 34327.3 hPa SSW 10.3 km/h 28.5 km/h 40 % 0 mm
13:42 -1.1 °C -9.7 °C 34327.3 hPa ESE 10.3 km/h 28.5 km/h 39 % 0 mm
13:47 -0.9 °C -9.6 °C 34327.3 hPa Calm   28.5 km/h 39 % 0 mm
13:52 -0.9 °C -9.8 °C 34327.3 hPa WSW 10.3 km/h 20.8 km/h 38 % 0 mm
14:02 -0.9 °C -9.7 °C 34327.3 hPa WSW 12.9 km/h 23.3 km/h 38 % 0 mm
14:07 -0.9 °C -10 °C 34327.3 hPa Calm   23.3 km/h 37 % 0 mm
14:12 -0.8 °C -10.2 °C 34327.3 hPa SW 15.6 km/h 28.5 km/h 36 % 0 mm
14:17 -0.9 °C -10.2 °C 34313.7 hPa WSW 7.7 km/h 31.1 km/h 36 % 0 mm
14:22 -0.8 °C -10.3 °C 34313.7 hPa WSW 10.3 km/h 31.1 km/h 35 % 0 mm
14:27 -0.7 °C -10.2 °C 34313.7 hPa South 7.7 km/h 25.9 km/h 35 % 0 mm
14:32 -0.6 °C -10.2 °C 34313.7 hPa SW 10.3 km/h 25.9 km/h 35 % 0 mm
14:37 -0.6 °C -10.2 °C 34313.7 hPa SW 7.7 km/h 25.9 km/h 35 % 0 mm
14:42 -0.5 °C -10.1 °C 34313.7 hPa SW 15.6 km/h 25.9 km/h 35 % 0 mm
14:47 -0.3 °C -9.9 °C 34303.6 hPa SE 15.6 km/h 28.5 km/h 35 % 0 mm
14:52 -0.2 °C -10.3 °C 34303.6 hPa SW 12.9 km/h 28.5 km/h 33 % 0 mm
14:57 -0.3 °C -10.2 °C 34303.6 hPa South 7.7 km/h 23.3 km/h 34 % 0 mm
15:02 -0.2 °C -10.3 °C 34303.6 hPa SSE 18.2 km/h 23.3 km/h 33 % 0 mm
15:07 -0.2 °C -10.3 °C 34303.6 hPa South 12.9 km/h 23.3 km/h 33 % 0 mm
15:12 -0.4 °C -10.5 °C 34303.6 hPa SSW 7.7 km/h 25.9 km/h 33 % 0 mm
15:17 -0.4 °C -10.8 °C 34303.6 hPa SW 18.2 km/h 25.9 km/h 32 % 0 mm
15:22 -0.5 °C -10.6 °C 34303.6 hPa West 18.2 km/h 25.9 km/h 33 % 0 mm
15:27 -0.5 °C -10.3 °C 34303.6 hPa Calm   25.9 km/h 34 % 0 mm
15:32 -0.2 °C -10.1 °C 34303.6 hPa SE 2.6 km/h 23.3 km/h 34 % 0 mm
15:42 -0.2 °C -10.3 °C 34293.4 hPa ESE 2.6 km/h 23.3 km/h 33 % 0 mm
15:47 -0.1 °C -10.3 °C 34293.4 hPa SW 10.3 km/h 23.3 km/h 33 % 0 mm
15:52 0.1 °C -10.1 °C 34293.4 hPa SSE 10.3 km/h 20.8 km/h 33 % 0 mm
15:57 0 °C -10.4 °C 34293.4 hPa SSE 7.7 km/h 20.8 km/h 32 % 0 mm
16:02 0.1 °C -10.3 °C 34293.4 hPa Calm   20.8 km/h 32 % 0 mm
16:07 0.2 °C -10.6 °C 34293.4 hPa South 12.9 km/h 18.2 km/h 31 % 0 mm
16:12 -0.1 °C -10.3 °C 34279.9 hPa SSW 12.9 km/h 23.3 km/h 33 % 0 mm
16:17 -0.1 °C -10.2 °C 34279.9 hPa SW 18.2 km/h 25.9 km/h 33 % 0 mm
16:22 -0.1 °C -10.3 °C 34279.9 hPa SSW 2.6 km/h 25.9 km/h 33 % 0 mm
16:27 -0.1 °C -10.2 °C 34279.9 hPa SSE 7.7 km/h 25.9 km/h 33 % 0 mm
16:32 -0.1 °C -10.4 °C 34279.9 hPa SW 5.1 km/h 23.3 km/h 32 % 0 mm
16:42 0.1 °C -10.4 °C 34279.9 hPa SE 2.6 km/h 23.3 km/h 32 % 0 mm
16:47 0.1 °C -10.4 °C 34279.9 hPa WSW 15.6 km/h 23.3 km/h 32 % 0 mm
16:52 0.1 °C -10.3 °C 34269.7 hPa West 2.6 km/h 25.9 km/h 32 % 0 mm
16:57 0.2 °C -10.5 °C 34269.7 hPa SE 5.1 km/h 25.9 km/h 31 % 0 mm
17:02 0.3 °C -10.4 °C 34269.7 hPa WNW 2.6 km/h 25.9 km/h 31 % 0 mm
17:07 0.2 °C -10.5 °C 34269.7 hPa South 2.6 km/h 12.9 km/h 31 % 0 mm
17:12 0.2 °C -10 °C 34269.7 hPa WSW 5.1 km/h 12.9 km/h 33 % 0 mm
17:17 0.3 °C -10.2 °C 34269.7 hPa East 7.7 km/h 12.9 km/h 32 % 0 mm
17:22 0.2 °C -10.2 °C 34269.7 hPa Calm   15.6 km/h 32 % 0 mm
17:27 0.4 °C -10.1 °C 34269.7 hPa Calm   15.6 km/h 32 % 0 mm
17:32 0.5 °C -10 °C 34269.7 hPa ENE 7.7 km/h 15.6 km/h 32 % 0 mm
17:37 0.4 °C -10.3 °C 34256.2 hPa South 5.1 km/h 10.3 km/h 31 % 0 mm
17:42 0.4 °C -10.3 °C 34269.7 hPa SW 12.9 km/h 12.9 km/h 31 % 0 mm
17:47 0.2 °C -10.5 °C 34269.7 hPa SSW 7.7 km/h 15.6 km/h 31 % 0 mm
17:52 0.1 °C -10.4 °C 34256.2 hPa SSW 5.1 km/h 15.6 km/h 32 % 0 mm
17:57 -0.1 °C -10.4 °C 34256.2 hPa SE 2.6 km/h 15.6 km/h 32 % 0 mm
18:02 0.1 °C -10.4 °C 34256.2 hPa Calm   15.6 km/h 32 % 0 mm
18:07 0.1 °C -10.4 °C 34256.2 hPa SE 2.6 km/h 7.7 km/h 32 % 0 mm
18:12 0.2 °C -10.3 °C 34256.2 hPa East 2.6 km/h 7.7 km/h 32 % 0 mm
18:17 0.1 °C -10.4 °C 34256.2 hPa Calm   7.7 km/h 32 % 0 mm
18:22 -0.1 °C -10.2 °C 34256.2 hPa WSW 2.6 km/h 7.7 km/h 33 % 0 mm
18:32 0.2 °C -10.3 °C 34256.2 hPa Calm   15.6 km/h 32 % 0 mm
18:37 0.3 °C -10.1 °C 34256.2 hPa Calm   5.1 km/h 32 % 0 mm
18:42 0.1 °C -9.8 °C 34256.2 hPa ENE 5.1 km/h 5.1 km/h 34 % 0 mm
18:47 -0.1 °C -10 °C 34256.2 hPa Calm   10.3 km/h 34 % 0 mm
18:52 -0.2 °C -10.1 °C 34256.2 hPa ENE 5.1 km/h 10.3 km/h 34 % 0 mm
18:57 -0.3 °C -9.9 °C 34256.2 hPa ENE 5.1 km/h 10.3 km/h 35 % 0 mm
19:02 -0.5 °C -9.8 °C 34256.2 hPa ENE 2.6 km/h 10.3 km/h 36 % 0 mm
19:07 -0.6 °C -9.9 °C 34256.2 hPa NE 2.6 km/h 10.3 km/h 36 % 0 mm
19:12 -0.7 °C -10.1 °C 34256.2 hPa ENE 5.1 km/h 10.3 km/h 36 % 0 mm
19:17 -0.8 °C -9.9 °C 34256.2 hPa NE 2.6 km/h 7.7 km/h 37 % 0 mm
19:22 -0.9 °C -10 °C 34256.2 hPa NE 5.1 km/h 5.1 km/h 37 % 0 mm
19:32 -1.2 °C -9.8 °C 34256.2 hPa NE 5.1 km/h 7.7 km/h 39 % 0 mm
19:42 -1.4 °C -9.8 °C 34256.2 hPa Calm   10.3 km/h 40 % 0 mm
19:47 -1.6 °C -9.7 °C 34256.2 hPa NE 2.6 km/h 7.7 km/h 41 % 0 mm
19:52 -1.7 °C -9.8 °C 34256.2 hPa Calm   5.1 km/h 41 % 0 mm
19:57 -1.8 °C -9.5 °C 34256.2 hPa Calm   7.7 km/h 43 % 0 mm
20:02 -2 °C -9.4 °C 34256.2 hPa Calm   7.7 km/h 44 % 0 mm
20:12 -2.1 °C -9.6 °C 34256.2 hPa NNW 7.7 km/h 7.7 km/h 44 % 0 mm
20:17 -2.2 °C -9.6 °C 34269.7 hPa North 5.1 km/h 10.3 km/h 44 % 0 mm
20:22 -2.3 °C -9.7 °C 34269.7 hPa Calm   10.3 km/h 44 % 0 mm
20:27 -2.3 °C -9.9 °C 34269.7 hPa Calm   10.3 km/h 43 % 0 mm
20:32 -2.4 °C -10 °C 34269.7 hPa NNE 2.6 km/h 10.3 km/h 43 % 0 mm
20:37 -2.4 °C -10.1 °C 34269.7 hPa North 5.1 km/h 5.1 km/h 43 % 0 mm
20:42 -2.5 °C -10.1 °C 34269.7 hPa Calm   7.7 km/h 43 % 0 mm
20:57 -2.8 °C -9.8 °C 34269.7 hPa NNE 2.6 km/h 7.7 km/h 46 % 0 mm
21:02 -2.8 °C -9.8 °C 34269.7 hPa NNE 5.1 km/h 7.7 km/h 46 % 0 mm
21:07 -2.8 °C -9.8 °C 34269.7 hPa Calm   10.3 km/h 46 % 0 mm
21:17 -2.7 °C -9.9 °C 34269.7 hPa NNE 7.7 km/h 10.3 km/h 45 % 0 mm
21:22 -2.7 °C -9.9 °C 34269.7 hPa NE 2.6 km/h 15.6 km/h 45 % 0 mm
21:32 -2.8 °C -10.2 °C 34279.9 hPa North 7.7 km/h 12.9 km/h 44 % 0 mm
21:37 -2.8 °C -10.2 °C 34279.9 hPa North 2.6 km/h 10.3 km/h 44 % 0 mm
21:42 -2.9 °C -10.3 °C 34279.9 hPa Calm   10.3 km/h 44 % 0 mm
21:47 -3 °C -10.2 °C 34279.9 hPa North 5.1 km/h 10.3 km/h 45 % 0 mm
21:52 -3.1 °C -10.3 °C 34279.9 hPa NE 2.6 km/h 7.7 km/h 45 % 0 mm
22:02 -3 °C -10.2 °C 34279.9 hPa NNE 10.3 km/h 15.6 km/h 45 % 0 mm
22:07 -3 °C -10.2 °C 34279.9 hPa NNE 10.3 km/h 15.6 km/h 45 % 0 mm
22:12 -3 °C -10.2 °C 34269.7 hPa North 10.3 km/h 18.2 km/h 45 % 0 mm
22:17 -3 °C -10.2 °C 34279.9 hPa NE 5.1 km/h 18.2 km/h 45 % 0 mm
22:22 -3 °C -10 °C 34269.7 hPa ENE 2.6 km/h 18.2 km/h 46 % 0 mm
22:32 -3 °C -10 °C 34279.9 hPa NNE 10.3 km/h 18.2 km/h 46 % 0 mm
22:37 -3.1 °C -10.1 °C 34279.9 hPa NE 7.7 km/h 18.2 km/h 46 % 0 mm
22:42 -3.1 °C -9.9 °C 34279.9 hPa NE 7.7 km/h 15.6 km/h 47 % 0 mm
22:47 -3.2 °C -10 °C 34279.9 hPa NNE 2.6 km/h 12.9 km/h 47 % 0 mm
22:52 -3.2 °C -9.8 °C 34279.9 hPa NNE 10.3 km/h 12.9 km/h 48 % 0 mm
22:57 -3.3 °C -9.9 °C 34279.9 hPa NE 5.1 km/h 12.9 km/h 48 % 0 mm
23:02 -3.4 °C -10 °C 34279.9 hPa Calm   12.9 km/h 48 % 0 mm
23:12 -3.5 °C -9.9 °C 34279.9 hPa Calm   7.7 km/h 49 % 0 mm
23:17 -3.6 °C -9.9 °C 34279.9 hPa Calm   7.7 km/h 49 % 0 mm
23:22 -3.6 °C -9.9 °C 34279.9 hPa Calm   7.7 km/h 49 % 0 mm
23:32 -3.6 °C -9.8 °C 34279.9 hPa Calm     50 % 0 mm
23:42 -3.7 °C -9.9 °C 34279.9 hPa Calm     50 % 0 mm
23:47 -3.6 °C -9.8 °C 34279.9 hPa Calm     50 % 0 mm
23:52 -3.7 °C -9.7 °C 34279.9 hPa NE 2.6 km/h   51 % 0 mm
23:57 -3.6 °C -9.8 °C 34279.9 hPa NE 2.6 km/h 10.3 km/h 50 % 0 mm
Meteo18
Compliments of Weather Underground - 4 mb

Script developed by  Jim McMurry - jmcmurry@mwt.net Adapted for the template by  Wim van der Kuil - Leuven-Template.eu

You find our weather info also at:

European Weather Network

Weather Underground

Equipment we use:

Weather-station
Davis Vue

Weather-program
Meteobridge

Weather-server
Raspberry PI 2 B+

Provider
1 and 1

Davis Vue

Meteobridge

Raspberry PI 2 B+

1 and 1